Content
SEND FEEDBACK

Daily
Averages
Monthly
Summary
Czech Republic

HAVLICKUV BROD, CZECH REPUBLIC


Home > Europe > Czech Republic
Elevation: 4062 feet     Latitude: 49 36N     Longitude: 015 36E

WEATHER
 
SELECT A DAY
Number of Records: 39,308;   Date Range: 1/27/05 - 8/10/14
 
SHARE

PRINT THIS DATA

[ ← Previous Day ]
WEATHER ALMANAC - FEBRUARY 13, 2013
[ Next Day → ]
[ °C ]   °F
Weather ElementAverageHighLow
Temperature28.8 °F30.2 °F (12:00 pm)28.4 °F (12:15 am)
Dewpoint27.4 °F28.4 °F (12:15 am)26.6 °F (12:49 am)
Humidity94.9 %100 % (12:15 am)86 % (12:00 pm)
Barometer30.08 in30.27 in (11:00 pm)29.92 in (12:15 am)
Wind Speed7 mph11.5 mph (1:00 pm)
Weather ElementAverage
Visibility2.2 mi
Wind DirectionWNW (295.3 °)

Weather ElementTotal
Precipitation---
Heating Degree Days35.7 (Base 65)
Averaged from 30 records on February 13, 2013
WEATHER CONDITIONS BREAKOUT
WIND DIRECTION BREAKOUT
WEATHER BY HOUR - FEBRUARY 13, 2013
[ °C ]   °F
Local TimeTemperatureDewpointHumidityBarometerVisibilityWind DirectionWind SpeedGust SpeedPrecipitationEventsConditions
12:15 AM28.4 °F28.4 °F100 %29.92 in0.4 miNW (320°)1.2 mphFogLight Freezing Fog
12:49 AM28.4 °F26.6 °F93 %29.92 in0.5 miWest (270°)2.3 mphFogLight Freezing Fog
1:00 AM28.4 °F26.6 °F93 %29.92 in0.5 miWest (260°)2.3 mphFogLight Freezing Fog
1:23 AM28.4 °F26.6 °F93 %29.92 in1.2 miWest (270°)2.3 mphOvercast
2:00 AM28.4 °F26.6 °F93 %29.95 in1.2 miWSW (250°)1.2 mphOvercast
3:00 AM28.4 °F26.6 °F93 %29.95 in2.2 miNW (310°)2.3 mphOvercast
4:02 AM28.4 °F26.6 °F93 %29.95 in3.1 miWNW (300°)4.6 mphOvercast
5:00 AM28.4 °F26.6 °F93 %29.98 in3.7 miWest (270°)2.3 mphOvercast
6:00 AM28.4 °F28.4 °F100 %29.98 in3.7 miWNW (300°)4.6 mphOvercast
6:11 AM28.4 °F28.4 °F100 %30.01 in2.8 miWNW (300°)5.8 mphOvercast
6:49 AM28.4 °F28.4 °F100 %30.01 in0.4 miWNW (290°)5.8 mphFogLight Freezing Fog
7:00 AM28.4 °F28.4 °F100 %30.01 in0.3 miWNW (290°)5.8 mphFogLight Freezing Fog
9:00 AM28.4 °F28.4 °F100 %30.06 in0.5 miWest (280°)8.1 mphFogLight Freezing Fog
9:15 AM28.4 °F28.4 °F100 %30.06 in0.6 miWNW (290°)8.1 mphOvercast
10:00 AM28.4 °F28.4 °F100 %30.06 in0.9 miWNW (290°)8.1 mphOvercast
10:30 AM28.4 °F28.4 °F100 %30.09 in1.9 miWNW (300°)10.4 mphOvercast
11:00 AM28.4 °F28.4 °F100 %30.09 in1.9 miWNW (300°)10.4 mphOvercast
12:00 PM30.2 °F26.6 °F86 %30.12 in2.2 miWNW (300°)10.4 mphOvercast
1:00 PM30.2 °F28.4 °F93 %30.12 in2.2 miWNW (290°)11.5 mphOvercast
2:00 PM30.2 °F28.4 °F93 %30.15 in2.2 miWNW (300°)10.4 mphOvercast
3:00 PM30.2 °F28.4 °F93 %30.15 in1.6 miWNW (300°)9.2 mphSnowLight Snow
4:00 PM30.2 °F28.4 °F93 %30.18 in1.2 miNW (310°)8.1 mphSnowLight Snow
5:00 PM30.2 °F26.6 °F86 %30.18 in1.9 miWNW (300°)9.2 mphSnowLight Snow
6:00 PM28.4 °F26.6 °F93 %30.21 in1.9 miWNW (300°)10.4 mphOvercast
6:14 PM28.4 °F26.6 °F93 %30.21 in4.3 miNW (310°)10.4 mphOvercast
7:00 PM28.4 °F26.6 °F93 %30.21 in4.3 miNW (310°)10.4 mphOvercast
8:00 PM28.4 °F26.6 °F93 %30.21 in4.3 miNW (320°)9.2 mphMostly Cloudy
9:00 PM28.4 °F26.6 °F93 %30.24 in4.3 miNW (310°)10.4 mphMostly Cloudy
10:00 PM28.4 °F26.6 °F93 %30.24 in4.3 miNW (310°)8.1 mphMostly Cloudy
11:00 PM28.4 °F26.6 °F93 %30.27 in4.3 miNW (310°)8.1 mphMostly Cloudy
Hourly data recorded from LKCV, located miles away from Havlickuv Brod, Czech Republic







STORIES FROM OUR PARTNERS